Home   Weather   Warminster Township   Past weeks

Flag for USA Past Weather in Warminster Township, Pennsylvania, USA — Yesterday and Last 2 Weeks

Now
69 °F

Sunny.


Feels Like: 69 °F
Forecast: 49 / 69 °F
Wind: 5 mph from North

Location: Doylestown Airport

Current Time: Sep 25, 2016 at 1:30:59 PM

Latest Report: Sep 25, 2016 at 12:54 PM


Visibility: 10 mi

Pressure: 30.19 "Hg

Humidity: 39%

Dew Point: 43 °F

Location of Warminster TownshipLocation

Past Weather in Warminster Township — Graph

°F

Warminster Township Temperature Yesterday

Maximum temperature yesterday: 74 °F (at 3:54 PM)
Minimum temperature yesterday: 56 °F (at 11:54 PM)
Average temperature yesterday: 66 °F

High & Low Weather Summary for the Past Weeks

 TemperatureHumidityPressure
High94 °F (Sep 10, 12:54 PM)100% (Sep 19, 7:00 AM)30.32 "Hg (Sep 19, 7:00 AM)
Low49 °F (Sep 25, 6:54 AM)29% (Sep 12, 3:54 PM)29.85 "Hg (Sep 11, 3:54 AM)
Average71 °F69%30.11 "Hg
* Reported Sep 10 11:54 AM — Sep 25 11:54 AM, Warminster Township, Weather by CustomWeather, © 2016

Note: Actual official high and low records may vary slightly from our data, if they occured in-between our weather recording intervals... More about our weather records

Advertising

Warminster Township Weather History for the Previous 24 Hours

Scroll right to see more
 ConditionsComfort  
Time TempWeatherWind HumidityBarometerVisibility
11:54 AM
Sun, Sep 25
69 °FSunny.9 mph39%30.20 "Hg10 mi
10:54 AM66 °FSunny.9 mph45%30.21 "Hg10 mi
9:54 AM63 °FSunny.5 mph50%30.22 "Hg10 mi
8:54 AM58 °FSunny.7 mph60%30.21 "Hg10 mi
7:54 AM51 °FSunny.5 mph74%30.22 "Hg10 mi
6:54 AM49 °FSunny.3 mph80%30.20 "Hg10 mi
5:54 AM50 °FClear.3 mph77%30.19 "Hg10 mi
4:54 AM50 °FClear.3 mph77%30.17 "Hg10 mi
3:54 AM50 °FClear.No wind83%30.16 "Hg10 mi
2:54 AM52 °FClear.No wind75%30.16 "Hg10 mi
1:54 AM51 °FClear.No wind83%30.17 "Hg10 mi
12:54 AM52 °FClear.No wind80%30.16 "Hg10 mi
11:54 PM
Sat, Sep 24
56 °FClear.3 mph70%30.15 "Hg10 mi
10:54 PM58 °FClear.3 mph67%30.15 "Hg10 mi
9:54 PM59 °FClear.3 mph64%30.14 "Hg10 mi
8:54 PM60 °FClear.3 mph62%30.13 "Hg10 mi
7:54 PM63 °FClear.5 mph60%30.11 "Hg10 mi
6:54 PM67 °FClear.No wind55%30.09 "Hg10 mi
5:54 PM73 °FSunny.3 mph41%30.07 "Hg10 mi
4:54 PM74 °FSunny.7 mph41%30.06 "Hg10 mi
3:54 PM74 °FPartly sunny.3 mph43%30.06 "Hg10 mi
2:54 PM71 °FOvercast.6 mph53%30.07 "Hg10 mi
1:54 PM70 °FMostly cloudy.5 mph55%30.09 "Hg10 mi
1:03 PM69 °FMore clouds than sun.7 mph61%30.13 "Hg10 mi
Weather by CustomWeather, © 2016

See weather overviewHow to use our weather pages